Weather History for PAVD - February, 2013

Change the Weather History Date:

Friday, February 22, 2013

  Actual Average Record
Temperature  
Mean Temperature 20 °F -  
Max Temperature 28 °F 31 °F 43 °F (1969)
Min Temperature 12 °F 20 °F 0 °F (1965)
Degree Days  
Heating Degree Days 45    
Moisture  
Dew Point 15 °F    
Average Humidity 74    
Maximum Humidity 93    
Minimum Humidity 59    
Precipitation  
Precipitation 0.00 in - - ()
Sea Level Pressure  
Sea Level Pressure 29.23 in    
Wind  
Wind Speed 2 mph (ENE)    
Max Wind Speed 6 mph    
Max Gust Speed -    
Visibility 13 miles    
Events      
Averages and records for this station are not official NWS values.
T = Trace of Precipitation, MM = Missing Value Source: NWS Daily Summary

Daily Weather History Graph

Daily Weather History Graph

Search for Another Location

Airport or City:

Trip Planner

Search our weather history database for the weather conditions in past years. The results will help you decide how hot, cold, wet, or windy it might be!

Date:

Astronomy

Feb. 22, 2013 Rise Set
Actual Time 8:05 AM AKST 5:52 PM AKST
Civil Twilight 7:21 AM AKST 6:36 PM AKST
Nautical Twilight 6:31 AM AKST 7:26 PM AKST
Astronomical Twilight 5:41 AM AKST 8:17 PM AKST
Moon 2:41 PM AKST (2/22) 6:31 AM AKST (2/22)
Length of Visible Light 11h 15m
Length of Day
9h 47m
Waxing Gibbous, 91% of the Moon is Illuminated
Feb 22
Waxing Gibbous
Feb 25
Full
Mar 4
Last Quarter
Mar 11
New
Mar 19
First Quarter

Hourly Weather History & Observations

Time (AKST) Temp. Windchill Dew Point Humidity Pressure Visibility Wind Dir Wind Speed Gust Speed Precip Events Conditions
2:36 AM 17.6 °F 12.3 °F 14.0 °F 86% 29.13 in 10.0 mi NNE 3.5 mph - N/A   Overcast
3:16 AM 14.0 °F - 12.2 °F 93% 29.13 in 10.0 mi Calm Calm - N/A   Clear
3:36 AM 12.2 °F 6.1 °F 10.4 °F 92% 29.12 in 10.0 mi East 3.5 mph - N/A   Clear
5:47 AM 15.8 °F - 10.4 °F 79% 29.14 in 10.0 mi Calm Calm - N/A   Mostly Cloudy
6:16 AM 15.8 °F - 12.2 °F 86% 29.14 in 10.0 mi Calm Calm - N/A   Mostly Cloudy
6:36 AM 15.8 °F 8.6 °F 10.4 °F 79% 29.14 in 10.0 mi ESE 4.6 mph - N/A   Mostly Cloudy
6:56 AM 17.6 °F 10.7 °F 14.0 °F 86% 29.14 in 10.0 mi NE 4.6 mph - N/A   Mostly Cloudy
7:47 AM 17.6 °F 12.3 °F 12.2 °F 79% 29.15 in 15.0 mi NNE 3.5 mph - N/A   Mostly Cloudy
8:36 AM 17.6 °F - 12.2 °F 79% 29.16 in 10.0 mi Calm Calm - N/A   Mostly Cloudy
8:47 AM 17.6 °F 12.3 °F 15.8 °F 93% 29.15 in 20.0 mi North 3.5 mph - N/A   Mostly Cloudy
9:47 AM 19.4 °F - 14.0 °F 80% 29.17 in 20.0 mi Calm Calm - N/A   Mostly Cloudy
10:16 AM 21.2 °F - 12.2 °F 68% 29.17 in 10.0 mi Calm Calm - N/A   Mostly Cloudy
10:47 AM 23.0 °F - 15.8 °F 74% 29.18 in 20.0 mi Calm Calm - N/A   Mostly Cloudy
11:47 AM 24.8 °F 19.1 °F 15.8 °F 69% 29.20 in 20.0 mi South 4.6 mph - N/A   Scattered Clouds
12:47 PM 26.6 °F - 15.8 °F 64% 29.22 in 20.0 mi Calm Calm - N/A   Mostly Cloudy
1:47 PM 26.6 °F 21.2 °F 17.6 °F 69% 29.23 in 20.0 mi WSW 4.6 mph - N/A   Mostly Cloudy
2:36 PM 28.4 °F - 17.6 °F 64% 29.25 in 10.0 mi Calm Calm - N/A   Mostly Cloudy
2:56 PM 28.4 °F - 17.6 °F 64% 29.25 in 10.0 mi Calm Calm - N/A   Scattered Clouds
3:47 PM 28.4 °F - 15.8 °F 59% 29.27 in 20.0 mi Calm Calm - N/A   Mostly Cloudy
4:47 PM 26.6 °F 22.6 °F 15.8 °F 64% 29.30 in 20.0 mi East 3.5 mph - N/A   Mostly Cloudy
5:47 PM 26.6 °F - 15.8 °F 64% 29.32 in 20.0 mi Calm Calm - N/A   Mostly Cloudy
6:47 PM 26.6 °F - 15.8 °F 64% 29.36 in 10.0 mi Calm Calm - N/A   Mostly Cloudy
7:47 PM 24.8 °F 19.1 °F 15.8 °F 69% 29.36 in 10.0 mi NNE 4.6 mph - N/A   Mostly Cloudy
8:47 PM 24.8 °F 17.9 °F 15.8 °F 69% 29.38 in 10.0 mi ENE 5.8 mph - N/A   Mostly Cloudy
9:36 PM 26.6 °F - 15.8 °F 64% 29.39 in 10.0 mi Calm Calm - N/A   Mostly Cloudy
9:47 PM 24.8 °F - 15.8 °F 69% 29.39 in 8.0 mi Calm Calm - N/A   Overcast
11:56 PM 24.8 °F - 15.8 °F 69% 29.43 in 10.0 mi Calm Calm - N/A   Overcast